Location: Nicholson Island
(43.9186°N, 77.5216°W)
Time: 08:19:27
(UTC+00:00)

Daily predictions for brighter satellites

Satellite Brightness Start Highest point End
(mag) Time Altitude Azimuth Time Altitude Azimuth Time Altitude Azimuth
SPOT 1/Viking Rocket 4.2 12:00:04 10° NNE 12:05:10 62° ESE 12:10:14 10° S
GEOS 3 Rocket 3.8 12:00:18 10° SE 12:05:30 78° NE 12:10:51 10° NW
Cosmos 1992 Rocket 4.2 22:34:54 10° SSW 22:40:05 78° WNW 22:45:17 10° NNE
NOSS 3-1 (A) 4.4 22:34:14 10° NNW 22:40:50 42° NE 22:48:54 10° ESE
Cosmos 1484 Rocket 4.2 22:38:09 10° SSW 22:41:16 38° W 22:44:25 10° NNW
Okean 1-7 3.7 22:38:06 10° SSE 22:41:43 31° E 22:45:23 10° NNE
CZ-2D R/B 2.8 22:42:14 10° SSE 22:45:15 54° ENE 22:48:18 10° N
NOSS 3-1 (C) 4.1 22:41:39 10° NW 22:48:51 77° NE 22:57:48 10° SE
ATLAS 2AS CENTAUR R/B 4.3 22:47:33 10° SE 22:50:43 14° ESE 22:53:52 10° ENE
UNK 4.0 22:49:04 10° N 22:53:35 70° WNW 22:58:04 10° SSW
NOSS 2-1 (D) 4.3 22:50:12 10° NW 22:53:45 53° SW 22:58:31 10° SSE
BlueWalker 3 2.0 22:52:14 10° WSW 22:55:46 62° NNW 22:59:15 10° NE
Cosmos 1339 Rocket 4.4 22:50:48 10° S 22:56:55 80° E 23:03:00 10° N
ERS-1 4.4 22:52:04 10° SSE 22:57:01 73° ENE 23:02:05 10° N
Cosmos 909 Rocket 4.4 22:53:47 10° SSW 23:01:31 89° WNW 23:08:02 10° NNE
SJ-12 3.8 22:58:15 10° SSE 23:02:03 86° WSW 23:05:54 10° NNW
COSMO-SKYMED 1 3.3 22:58:33 10° NE 23:02:09 29° E 23:05:44 10° SSE
Meteor 1-24 Rocket 4.3 22:59:04 10° SSE 23:04:19 38° E 23:09:44 10° NNE
Cosmos 1486 Rocket 4.1 23:01:05 10° NNW 23:06:18 58° ENE 23:11:28 10° SE
Timation 1 Rocket 4.3 23:03:26 10° SSW 23:09:19 69° ESE 23:15:16 10° NNE
Cosmos 1934 Rocket 4.0 23:04:01 10° N 23:10:16 83° E 23:16:34 10° S
Meteor 2-19 Rocket 4.4 23:06:25 10° S 23:12:29 71° E 23:18:33 10° NNE
Cosmos 1703 Rocket 4.5 23:09:08 10° SE 23:12:40 25° E 23:16:11 10° NNE
BREEZE-M DEB (TANK) 3.4 23:12:31 10° W 23:15:38 54° N 23:23:03 15° ENE
CZ-2D R/B 3.5 23:13:38 10° SE 23:17:16 45° ENE 23:20:56 10° N
DELTA 2 R/B (1) 4.3 23:15:01 10° W 23:20:22 48° SSW 23:25:42 10° ESE
Cosmos 2322 Rocket 4.0 23:18:27 10° NNE 23:20:37 12° NE 23:21:00 12° NE
SPOT 1/Viking Rocket 3.6 23:18:04 10° SSE 23:23:13 85° WSW 23:28:22 10° NNW
BREEZE-M (TANK) 3.0 23:21:59 10° WNW 23:23:55 27° N 23:25:07 20° NE
PSLV R/B 3.8 23:20:56 10° SE 23:24:50 41° ENE 23:28:46 10° N
Cosmos 2228 Rocket 3.0 23:20:48 10° S 23:25:14 84° E 23:29:41 10° N
Resurs 01 Rocket 2.4 23:22:14 10° SE 23:26:00 29° ENE 23:29:48 10° N
Resurs 1-3 3.5 23:22:25 10° SSE 23:26:41 68° ENE 23:30:58 10° N
Cosmos 1777 Rocket 3.9 23:23:07 10° NNW 23:28:20 72° ENE 23:33:32 10° SSE
Cosmos 990 Rocket 4.4 23:23:51 10° N 23:28:44 38° ENE 23:33:34 10° SE
USA 267 4.4 23:26:38 15° NE 23:30:50 28° N 23:36:14 10° NW
Spot 4 Rocket 4.0 23:27:05 10° SSE 23:32:08 65° ENE 23:37:12 10° N
YAOGAN 1 2.4 23:28:14 10° SSE 23:32:28 76° ENE 23:36:44 10° N
NOSS 8 (A) 4.2 23:29:42 10° NW 23:32:39 81° SW 23:36:01 10° SSE
ATLAS CENTAUR R/B 1.0 23:31:59 10° SSW 23:34:52 41° ESE 23:35:22 37° E
Cosmos 1862 Rocket 4.4 23:32:07 10° SSW 23:36:26 53° WNW 23:40:44 10° N
Cosmos 1980 Rocket 2.2 23:32:30 10° NNW 23:38:08 89° WSW 23:43:46 10° SSE
Meteor 2-5 Rocket 3.7 23:32:45 10° S 23:38:17 64° E 23:43:59 10° NNE
Cosmos 2333 Rocket 3.4 23:40:09 10° N 23:44:34 22° NE 23:44:42 22° NE
Cosmos 1782 Rocket 4.4 23:42:21 10° N 23:45:35 29° NE 23:45:35 29° NE
ARIANE 5 R/B 4.4 23:42:25 10° SSW 23:47:04 33° W 23:51:44 10° NNW
Cosmos 1908 Rocket 3.4 23:45:25 10° N 23:49:48 67° E 23:54:11 10° SSE
COSMOS 2455 3.9 23:44:09 10° NW 23:49:52 46° WSW 23:55:32 10° S
Cosmos 2219 Rocket 4.2 23:50:35 10° NNE 23:51:15 11° NNE 23:51:15 11° NNE
Cosmos 1459 Rocket 4.5 23:47:54 10° N 23:53:25 34° ENE 23:56:17 23° ESE
Cosmos 2369 3.6 23:48:23 10° NNW 23:54:03 69° ENE 23:59:39 10° SSE
USA 59 Rocket 3.4 23:52:22 10° W 23:54:39 14° WSW 23:57:16 10° SSW
